Startseite
Über Mich
AHP4
Galerie
Sehschlangen
Tourenbuch
Bookmarks
Elektronik
Bewertung
Geschichten
[Tagesmessung] [Jahreswerte] [Information]

Messwerte vom 11.06.2022

Die letzten Messwerte von 23:58:46 Uhr:
KategorieMesswert
Temperatur [°C]16
Luftdruck [mBar]1006
Sonneneinstrahlung0
Wind [km/h]0 aus Nordost
Niederschlag [l/m²]0
rel.Luftfeucht.82.4%
CO2 [ppm]758

Diagramme
Messwerte vom 11.06.2022
Tagesaggregation
KategorieMinimumMaximumSchnittSumme
Temperatur [°C]153321.3875
Luftdruck [mBar]100410061005.6396
Sonneneinstrahlung247144.0042
Wind [km/h]13
rF [%]32.389.164.64
Niederschlag [l/m²]0
CO2 [ppm]415828660.3
Einordnung alsVegetationstag
Sommertag
Heißer Tag

Messungen an benachbarten Tagen: Zur Jahresaggregation 2022
Tabelle aller Messwerte
UhrzeitTemperatur [°C]Luftdruck [mBar]SonneWind [km/h]RichtungRegen [l/m²]rF [%]CO2 [ppm]
00:01:48 15 1005 0 0 NO 0 85.4 664
00:04:46 15 1006 0 0 S 0 85.7 667
00:07:46 15 1006 0 0 S 0 85.9 665
00:10:46 15 1005 0 0 S 0 86.2 667
00:13:49 15 1006 0 0 S 0 86.1 667
00:16:46 15 1005 0 0 S 0 86 667
00:19:46 15 1005 0 0 S 0 86.1 668
00:22:48 15 1006 0 0 S 0 86.1 667
00:25:46 15 1006 0 0 S 0 86.5 661
00:28:46 15 1006 0 0 O 0 86.7 647
00:31:46 15 1005 0 0 O 0 86.8 653
00:34:48 15 1006 0 0 O 0 87.4 653
00:37:48 15 1006 0 0 NO 0 88.2 662
00:40:49 15 1006 0 0 NO 0 89.1 653
00:43:49 15 1006 0 0 NO 0 88.9 648
00:46:48 15 1006 0 0 NO 0 88.6 652
00:49:48 15 1005 0 0 NO 0 88.6 645
00:52:47 15 1006 0 0 NO 0 88.5 650
00:55:47 15 1006 0 0 NO 0 88.4 647
00:58:48 15 1006 0 0 NO 0 88.4 654
01:01:47 15 1006 0 2 NO 0 88.7 650
01:04:48 15 1006 0 0 NO 0 89.1 650
01:07:48 15 1006 0 0 NO 0 89.1 644
01:10:48 15 1005 0 0 NO 0 89 644
01:13:48 15 1006 0 0 NO 0 88.9 646
01:16:46 15 1006 0 0 NO 0 89 657
01:19:47 15 1006 0 0 NO 0 88.5 656
01:22:49 15 1006 0 0 NO 0 88.5 662
01:25:49 15 1006 0 0 NO 0 88.5 666
01:28:50 15 1006 0 0 NO 0 88.5 670
01:31:50 15 1006 0 0 NO 0 88.3 672
01:34:49 15 1005 0 0 NO 0 88.2 677
01:37:49 15 1006 0 0 NO 0 88.2 679
01:40:49 15 1006 0 0 NO 0 88.2 689
01:43:50 15 1006 0 0 NO 0 88 687
01:46:48 15 1005 0 0 NO 0 88.1 697
01:49:48 15 1005 0 0 NO 0 88.1 697
01:52:47 15 1005 0 0 NO 0 87.9 698
01:55:49 15 1006 0 0 NO 0 87.8 692
01:58:48 15 1006 0 0 NO 0 87.7 694
02:01:48 15 1005 0 0 SO 0 87.7 708
02:04:46 15 1005 0 0 N 0 87.5 711
02:07:46 15 1005 0 0 N 0 87.6 707
02:10:46 15 1005 0 0 N 0 87.5 709
02:13:47 15 1005 0 0 N 0 87.4 709
02:16:46 15 1005 0 0 N 0 87 714
02:19:47 15 1005 0 0 N 0 86.7 718
02:22:47 15 1006 0 0 N 0 86.6 725
02:25:46 15 1006 0 0 N 0 86.5 723
02:28:47 15 1006 0 0 N 0 86.4 719
02:31:47 15 1006 0 0 N 0 86.4 718
02:34:47 15 1006 0 0 N 0 86.5 709
02:37:46 15 1006 0 0 N 0 86.6 714
02:40:47 15 1005 0 0 N 0 86.6 712
02:43:45 15 1006 0 0 N 0 86.5 717
02:46:48 15 1005 0 0 N 0 86.5 715
02:49:47 15 1005 0 0 N 0 86.4 722
02:52:47 15 1006 0 0 N 0 86 724
02:55:46 15 1006 0 0 N 0 85.9 730
02:58:48 15 1005 0 0 N 0 86.1 728
03:01:46 16 1006 0 0 O 0 86.1 732
03:04:46 16 1005 0 0 O 0 86.2 733
03:07:49 16 1005 0 0 SO 0 86.1 733
03:10:50 16 1005 0 0 SO 0 85.8 735
03:13:48 16 1005 0 0 NO 0 85.9 739
03:16:47 16 1005 0 0 NO 0 86.4 736
03:19:48 16 1005 0 0 NO 0 87.4 733
03:22:46 16 1005 0 0 NO 0 87.4 737
03:25:47 16 1005 0 0 NO 0 87 744
03:28:47 16 1005 0 0 NO 0 87.3 746
03:31:46 16 1006 0 0 NO 0 87.3 749
03:34:47 16 1005 0 0 NO 0 87.1 743
03:37:47 16 1006 0 0 NO 0 87.1 751
03:40:46 16 1005 0 0 NO 0 87.4 758
03:43:48 16 1005 0 0 NO 0 87.6 758
03:46:47 16 1005 0 0 NO 0 87.3 752
03:49:48 16 1006 0 0 NO 0 87.1 749
03:52:46 16 1005 0 0 NO 0 87.2 755
03:55:48 15 1005 0 0 NO 0 86.8 761
03:58:47 15 1005 0 0 NO 0 86.7 761
04:01:48 15 1005 0 0 NO 0 86.8 756
04:04:48 15 1005 0 0 NO 0 86.8 764
04:07:47 15 1006 0 0 NO 0 87 768
04:10:46 15 1005 0 0 NO 0 87.2 767
04:13:45 15 1005 0 0 NO 0 87.4 766
04:16:46 15 1004 0 0 NO 0 87.7 767
04:19:47 15 1004 0 0 NO 0 88.1 767
04:22:48 15 1005 0 0 NO 0 88.1 764
04:25:49 15 1004 3 0 NO 0 88.1 762
04:28:46 15 1004 5 0 NO 0 88.1 762
04:31:48 15 1005 7 0 NO 0 88.2 773
04:34:48 15 1005 10 0 S 0 88.2 776
04:37:47 15 1005 13 0 S 0 88.1 785
04:40:47 15 1005 17 0 S 0 88 776
04:43:47 15 1005 21 0 SO 0 87.5 782
04:46:48 15 1005 26 0 SO 0 87.2 773
04:49:48 16 1005 31 0 SO 0 86.9 768
04:52:48 16 1005 38 0 SO 0 86.6 773
04:55:50 16 1004 44 0 SO 0 86.5 776
04:58:47 16 1005 51 0 SO 0 86.4 779
05:01:48 16 1005 59 0 SO 0 86.4 787
05:04:47 16 1005 66 0 SO 0 86.4 787
05:07:50 16 1005 74 0 SO 0 86.3 785
05:10:50 16 1005 81 0 SO 0 86.4 782
05:13:49 16 1005 87 0 SO 0 86.4 787
05:16:47 16 1005 95 0 SO 0 86.4 795
05:19:50 16 1005 100 0 SO 0 86.4 787
05:22:49 16 1005 104 0 SO 0 86.3 777
05:25:49 16 1005 108 0 SO 0 86.3 776
05:28:48 16 1005 112 0 SO 0 86.2 777
05:31:47 16 1005 114 2 SO 0 85.7 779
05:34:48 16 1005 115 2 SO 0 85.5 779
05:37:50 16 1005 121 0 SO 0 85.2 784
05:40:51 16 1005 125 0 SO 0 85 790
05:43:49 16 1006 132 0 SO 0 84.8 794
05:46:50 16 1005 135 0 O 0 84.4 784
05:49:47 16 1006 138 0 O 0 84.4 782
05:52:49 16 1005 141 0 S 0 84 791
05:55:47 16 1005 145 0 S 0 83.8 799
05:58:46 16 1005 148 0 S 0 83.7 802
06:01:47 16 1005 152 0 S 0 83.7 799
06:04:49 16 1005 155 0 S 0 83.6 808
06:07:47 16 1006 158 0 NO 0 83.5 805
06:10:47 16 1005 161 0 NO 0 83.5 796
06:13:49 17 1005 163 0 NO 0 83.1 791
06:16:48 17 1005 164 0 NO 0 82.9 787
06:19:51 17 1005 167 0 NO 0 82.6 792
06:22:51 17 1006 170 0 NO 0 82.4 800
06:25:49 17 1006 173 0 NO 0 82.4 804
06:28:49 17 1005 175 0 NO 0 82.4 805
06:31:50 17 1005 177 0 NO 0 82.4 805
06:34:52 17 1005 180 0 NO 0 82.5 802
06:37:48 17 1005 182 0 O 0 82.4 811
06:40:48 17 1005 184 2 SO 0 82.3 816
06:43:51 17 1005 186 2 SO 0 82 826
06:46:48 17 1006 187 4 S 0 81.7 827
06:49:49 18 1005 189 1 SO 0 81.1 819
06:52:47 18 1005 191 0 SO 0 80.9 817
06:55:49 18 1006 192 0 SO 0 80.5 823
06:58:48 18 1005 193 0 S 0 80.2 819
07:01:48 18 1006 194 2 S 0 80 823
07:04:47 18 1005 196 0 S 0 79.4 826
07:07:48 18 1005 197 0 S 0 78.9 828
07:10:50 19 1006 197 1 S 0 77.5 826
07:13:52 19 1005 198 0 SO 0 76.5 820
07:16:47 19 1005 199 1 S 0 76.3 819
07:19:49 19 1006 199 2 S 0 75.3 813
07:22:46 19 1006 200 0 S 0 74.6 808
07:25:48 19 1006 201 2 S 0 74.5 811
07:28:48 19 1006 202 3 SO 0 74.4 805
07:31:48 19 1006 203 0 SO 0 73.3 811
07:34:49 20 1006 204 0 SW 0 73.3 817
07:37:52 20 1006 204 0 SW 0 73.6 823
07:40:51 20 1005 205 0 SO 0 73 823
07:43:48 20 1005 206 2 W 0 72.3 820
07:46:48 20 1006 206 1 W 0 71.8 822
07:49:46 20 1005 206 1 W 0 72.1 814
07:52:47 20 1006 207 1 O 0 70.3 811
07:55:50 20 1006 209 3 S 0 69.5 811
07:58:48 20 1005 209 2 SO 0 70.3 812
08:01:49 21 1005 210 5 SW 0 69.6 807
08:04:51 21 1006 210 1 NW 0 67.9 805
08:07:49 21 1005 211 1 W 0 67.2 798
08:10:47 21 1005 212 3 S 0 66.5 791
08:13:47 21 1005 213 0 S 0 65.3 796
08:16:47 21 1006 213 4 SW 0 65.3 799
08:19:48 22 1006 213 0 W 0 65.1 792
08:22:49 22 1006 213 4 W 0 65.4 782
08:25:48 22 1006 214 1 S 0 64.1 779
08:28:47 22 1005 215 4 S 0 63.7 779
08:31:47 22 1006 214 10 O 0 62.9 776
08:34:48 22 1006 213 3 SW 0 62.6 773
08:37:49 22 1006 212 4 S 0 62.9 763
08:40:47 22 1006 212 8 O 0 63.1 761
08:43:47 22 1006 214 2 W 0 64.3 749
08:46:49 22 1006 216 1 W 0 64 754
08:49:47 22 1005 218 0 S 0 63.9 749
08:52:49 22 1006 218 2 SO 0 64.4 750
08:55:50 22 1006 218 1 SO 0 63.1 749
08:58:48 22 1006 218 0 W 0 62.9 746
09:01:49 22 1005 219 3 W 0 62.8 753
09:04:48 22 1006 219 2 S 0 62.4 746
09:07:49 22 1006 219 4 NW 0 62.8 741
09:10:48 22 1006 219 7 S 0 62.9 744
09:13:49 22 1006 217 6 W 0 62.8 732
09:16:48 22 1006 213 1 W 0 62.5 725
09:19:49 22 1006 209 7 S 0 63.2 725
09:22:50 22 1006 206 1 O 0 65.9 725
09:25:50 22 1006 204 2 O 0 65.4 722
09:28:52 22 1006 204 0 NW 0 63.9 715
09:31:48 22 1006 204 3 SO 0 64 707
09:34:52 21 1006 208 10 NW 0 64.9 701
09:37:50 22 1006 207 8 S 0 65.6 711
09:40:50 22 1005 209 3 S 0 65.8 708
09:43:49 22 1006 209 6 SO 0 65.4 708
09:46:47 22 1006 211 2 W 0 65.2 697
09:49:48 22 1006 207 5 W 0 65 688
09:52:50 22 1006 207 5 SW 0 65.7 683
09:55:47 22 1006 207 1 SO 0 66.1 678
09:58:49 22 1006 210 6 SW 0 65.9 670
10:01:49 22 1006 212 1 S 0 67.5 667
10:04:47 22 1006 217 3 S 0 67.4 664
10:07:48 22 1006 224 4 S 0 65.7 656
10:10:50 23 1006 224 0 NW 0 65.7 635
10:13:48 23 1006 222 1 SW 0 66.1 635
10:16:49 23 1006 221 2 NW 0 61.6 636
10:19:48 23 1006 220 6 W 0 61.6 644
10:22:51 24 1006 224 5 W 0 62.6 644
10:25:51 23 1006 227 2 SO 0 62.2 639
10:28:51 24 1006 224 2 SW 0 61 630
10:31:49 23 1006 226 5 S 0 60.6 617
10:34:47 23 1006 226 2 SW 0 61.1 606
10:37:50 23 1006 224 6 SW 0 62 600
10:40:50 23 1006 192 2 S 0 62.1 595
10:43:49 23 1006 195 1 S 0 62.1 603
10:46:47 23 1006 225 6 O 0 61.9 607
10:49:49 23 1006 219 1 SW 0 62.5 615
10:52:48 23 1006 213 2 S 0 62.4 611
10:55:48 23 1006 210 2 W 0 63 600
10:58:48 23 1006 214 2 S 0 62.9 592
11:01:48 23 1006 220 4 SW 0 63.3 588
11:04:48 23 1006 225 8 S 0 62.6 595
11:07:51 23 1006 223 9 W 0 60.6 602
11:10:47 23 1006 214 2 W 0 60.7 610
11:13:48 23 1006 213 3 W 0 61 614
11:16:49 23 1006 213 8 S 0 60.7 613
11:19:49 23 1006 213 4 S 0 60.1 614
11:22:49 23 1006 215 5 NW 0 61.1 611
11:25:47 23 1006 221 1 O 0 61.7 621
11:28:52 24 1006 222 3 NW 0 60.7 623
11:31:50 24 1006 220 0 W 0 58.7 629
11:34:49 24 1006 217 8 S 0 58.6 633
11:37:46 24 1006 216 9 W 0 59.7 643
11:40:48 25 1006 214 2 SO 0 59.1 652
11:43:48 25 1006 215 13 W 0 57.3 652
11:46:48 25 1006 225 4 S 0 54.6 655
11:49:49 25 1006 226 6 O 0 54.2 659
11:52:48 26 1006 222 1 SW 0 55.3 667
11:55:49 26 1006 227 4 O 0 50.4 656
11:58:49 26 1006 226 7 NW 0 51.1 663
12:01:49 27 1005 224 3 SO 0 51.9 656
12:04:49 27 1006 218 3 S 0 48.3 659
12:07:50 27 1006 219 7 SO 0 48.4 656
12:10:53 26 1006 225 2 SW 0 49.4 650
12:13:49 27 1006 223 4 W 0 50.2 650
12:16:48 26 1006 220 1 O 0 52.3 655
12:19:50 26 1006 218 4 SO 0 49.8 659
12:22:49 26 1006 219 5 NW 0 49.2 665
12:25:51 26 1006 210 1 W 0 49.8 672
12:28:51 27 1006 217 1 S 0 52.8 679
12:31:50 27 1006 222 9 S 0 46 683
12:34:50 28 1006 223 4 SW 0 46 682
12:37:50 28 1006 226 6 NO 0 46.7 682
12:40:48 29 1006 225 3 S 0 47.5 667
12:43:49 29 1006 223 2 W 0 45.1 655
12:46:46 29 1006 224 5 S 0 44.4 564
12:49:50 28 1006 219 8 S 0 44 530
12:52:49 28 1006 217 5 S 0 45 527
12:55:49 28 1006 221 1 W 0 46.5 550
12:58:48 28 1006 221 3 S 0 45.9 620
13:01:48 28 1005 226 1 SO 0 44.9 659
13:04:48 29 1006 224 5 W 0 43.8 653
13:07:49 28 1006 200 2 S 0 42.4 653
13:10:50 27 1006 197 2 SW 0 44.7 649
13:13:48 27 1006 209 2 SO 0 46.1 647
13:16:49 28 1006 213 3 S 0 44.7 632
13:19:32 27 1006 206 5 SO 0 40 603
13:22:47 29 1006 211 0 O 0 41.8 566
13:25:49 29 1006 210 5 SW 0 43.5 530
13:28:48 28 1006 209 1 NW 0 44.5 501
13:31:47 28 1005 174 0 NO 0 46.4 480
13:34:46 28 1006 202 1 W 0 47.4 457
13:37:48 27 1006 200 0 W 0 47.4 442
13:40:48 26 1006 206 6 O 0 47.4 427
13:43:49 26 1006 215 6 SW 0 48.3 424
13:46:50 25 1006 224 1 SO 0 48.8 415
13:49:49 25 1006 229 2 NW 0 48.7 415
13:52:49 26 1006 231 1 SW 0 49.5 418
13:55:50 26 1006 232 8 SW 0 48.9 430
13:58:48 27 1006 231 3 NW 0 48.6 433
14:01:49 28 1006 217 7 W 0 46.2 442
14:04:46 28 1006 207 0 O 0 44.4 453
14:07:49 27 1006 203 0 SO 0 43.8 463
14:10:47 26 1006 209 3 S 0 45.4 474
14:13:48 26 1006 216 2 NW 0 46.1 480
14:16:49 26 1006 223 0 SO 0 47.6 485
14:19:48 26 1006 227 6 S 0 48.3 492
14:22:47 26 1006 230 0 N 0 47.3 503
14:25:49 26 1006 232 0 S 0 48.1 506
14:28:46 26 1006 234 1 N 0 48.4 508
14:31:50 27 1006 232 3 SO 0 47.7 515
14:34:47 27 1006 241 3 O 0 47.2 526
14:37:31 25 1006 242 2 S 0 40 532
14:40:49 30 1006 242 4 NW 0 43.8 542
14:43:48 30 1006 243 2 O 0 42.8 548
14:46:33 27 1006 243 3 W 0 40 548
14:49:47 31 1005 244 6 S 0 39.3 551
14:52:48 30 1006 221 2 S 0 39.6 559
14:55:48 30 1005 141 4 SW 0 38 574
14:58:47 30 1006 232 2 NW 0 37.9 582
15:01:47 28 1006 234 2 S 0 40.3 585
15:04:47 28 1006 232 1 N 0 42.2 585
15:07:49 28 1006 235 7 W 0 42.9 576
15:10:49 28 1006 245 2 SW 0 43.6 565
15:13:50 29 1006 239 5 NW 0 44.4 553
15:16:46 30 1006 236 4 O 0 44.1 550
15:19:50 30 1006 227 7 W 0 38.7 547
15:22:51 28 1006 218 2 NO 0 39 539
15:25:49 27 1006 219 5 NW 0 41.6 541
15:28:47 26 1006 229 4 NO 0 42.8 544
15:31:49 26 1006 228 2 W 0 44.8 550
15:34:49 26 1006 235 4 NW 0 45.9 550
15:37:48 26 1005 237 4 N 0 46.9 550
15:40:50 26 1005 243 5 NW 0 47.1 551
15:43:48 27 1006 246 5 NW 0 46.2 547
15:46:48 28 1006 244 5 NW 0 40.7 555
15:49:50 28 1006 247 2 N 0 41.8 550
15:52:50 28 1006 247 2 W 0 42.8 549
15:55:49 28 1006 241 0 NW 0 43.1 545
15:58:46 28 1006 238 6 O 0 44.4 538
16:01:50 28 1005 234 5 W 0 44.5 535
16:04:47 28 1006 247 2 S 0 44.3 533
16:07:49 29 1006 247 3 SW 0 43.1 529
16:10:47 30 1006 247 2 0 42.4 527
16:13:47 30 1006 225 1 O 0 41.9 523
16:16:49 30 1006 247 4 NW 0 40.1 527
16:19:49 30 1005 247 1 NW 0 39.8 530
16:22:31 29 1006 227 3 S 0 40 526
16:25:48 29 1006 222 2 S 0 37 524
16:28:48 28 1005 221 3 S 0 38.7 524
16:31:50 27 1006 224 6 NW 0 39.6 530
16:34:30 28 1006 224 2 W 0 40 524
16:37:47 26 1005 222 1 S 0 43.7 531
16:40:49 26 1006 227 1 S 0 44.8 533
16:43:48 27 1005 231 0 S 0 45.6 527
16:46:52 27 1006 236 0 S 0 45.8 533
16:49:50 28 1006 247 0 SW 0 46.9 560
16:52:32 26 1006 247 1 SO 0 40 553
16:55:31 26 1006 247 1 N 0 40 553
16:58:48 30 1006 222 0 S 0 39.1 553
17:01:49 29 1006 212 4 NO 0 40.3 554
17:04:48 28 1006 202 1 NW 0 41.3 548
17:07:48 27 1005 198 3 SO 0 42.6 545
17:10:46 26 1005 188 0 S 0 44.1 542
17:13:48 26 1006 187 5 SO 0 44.5 544
17:16:46 25 1006 188 1 W 0 45.8 549
17:19:51 25 1006 194 0 SW 0 47.8 550
17:22:48 25 1005 203 5 S 0 48.5 549
17:25:48 25 1006 209 6 SW 0 48.5 550
17:28:48 25 1006 219 0 SO 0 48.5 547
17:31:49 25 1006 229 0 W 0 49.1 548
17:34:48 25 1006 231 0 SO 0 49.2 547
17:37:50 25 1006 239 1 W 0 49.5 545
17:40:49 27 1005 247 2 SW 0 48.7 541
17:43:48 29 1005 246 1 S 0 43.7 536
17:46:48 30 1005 239 1 O 0 41.9 536
17:49:49 29 1005 247 1 NW 0 41.8 541
17:52:46 31 1005 247 2 W 0 42.2 541
17:55:49 31 1006 246 8 SO 0 36.3 542
17:58:48 31 1005 247 0 SW 0 37.5 538
18:01:50 31 1006 247 3 SW 0 38.1 532
18:04:32 30 1005 245 6 W 0 40 535
18:07:52 31 1006 247 1 NW 0 36.6 541
18:10:48 31 1006 247 1 S 0 36.6 539
18:13:50 31 1006 247 3 W 0 36 533
18:16:47 31 1006 247 2 W 0 35.8 534
18:19:49 33 1005 247 1 NW 0 35.9 526
18:22:51 32 1005 247 0 NW 0 34.8 532
18:25:48 33 1005 247 2 W 0 34.6 530
18:28:51 33 1005 247 0 SO 0 34.3 539
18:31:48 33 1006 247 1 NW 0 33.6 538
18:34:50 32 1005 247 4 NO 0 33.1 534
18:37:46 32 1005 247 1 O 0 33.1 535
18:40:47 32 1006 247 3 W 0 32.4 535
18:43:50 32 1005 246 2 S 0 32.3 530
18:46:50 32 1006 246 3 NW 0 33.1 525
18:49:49 31 1006 246 5 SW 0 33 524
18:52:47 29 1006 242 0 W 0 35.3 521
18:55:48 28 1005 234 5 O 0 36.4 515
18:58:47 27 1006 238 3 S 0 38.9 512
19:01:47 26 1005 225 2 W 0 41.3 515
19:04:50 26 1006 223 3 NW 0 43.6 518
19:07:50 26 1006 223 0 SO 0 46.5 524
19:10:50 25 1006 226 0 SW 0 46.5 518
19:13:48 25 1005 224 2 0 46.8 518
19:16:47 25 1006 226 3 W 0 47.5 515
19:19:49 25 1006 224 0 SO 0 47.9 515
19:22:49 25 1006 228 2 SW 0 46.9 511
19:25:50 25 1005 230 0 S 0 46.3 511
19:28:48 25 1005 221 0 NW 0 47.3 509
19:31:47 25 1006 213 3 W 0 47.7 509
19:34:52 24 1006 215 3 NW 0 47.9 507
19:37:49 24 1005 215 1 NO 0 47.9 510
19:40:47 24 1006 214 1 N 0 48.5 515
19:43:48 24 1006 213 0 NW 0 49.1 512
19:46:46 24 1006 211 1 W 0 49 509
19:49:48 23 1005 209 0 O 0 49.4 515
19:52:48 23 1006 208 2 O 0 50 526
19:55:54 23 1005 166 0 SO 0 51 543
19:58:49 23 1005 204 0 S 0 51.2 548
20:01:48 23 1006 212 1 W 0 51.6 556
20:04:51 23 1006 212 0 SO 0 52.1 559
20:07:49 23 1006 207 0 SW 0 52.1 557
20:10:50 23 1005 203 0 NO 0 52.8 559
20:13:49 23 1006 200 3 SW 0 52.8 560
20:16:48 22 1005 196 1 W 0 52.8 566
20:19:51 22 1005 193 0 SW 0 53.5 568
20:22:47 22 1005 192 0 NW 0 54.1 577
20:25:49 22 1005 191 0 SO 0 54.1 587
20:28:47 22 1006 189 0 O 0 54.2 594
20:31:47 22 1006 186 0 S 0 54.7 597
20:34:47 22 1006 185 0 O 0 54.9 605
20:37:50 21 1005 183 0 SO 0 55.2 606
20:40:48 21 1006 181 0 NO 0 55.4 614
20:43:51 21 1006 137 0 SO 0 55.8 616
20:46:50 21 1005 177 0 SO 0 55.9 620
20:49:48 21 1005 173 0 SO 0 56.1 618
20:52:49 21 1005 170 0 O 0 56.5 629
20:55:46 21 1005 167 0 O 0 56.8 638
20:58:49 21 1006 163 0 0 57.7 643
21:01:48 20 1006 159 0 0 58.1 647
21:04:50 20 1006 155 0 S 0 58.5 658
21:07:49 20 1005 150 0 S 0 58.8 668
21:10:46 20 1006 145 0 W 0 59.1 679
21:13:50 20 1006 140 0 W 0 59.7 690
21:16:48 20 1005 134 0 W 0 60.1 688
21:19:46 19 1006 127 0 W 0 60.1 687
21:22:49 19 1006 119 0 O 0 61.2 682
21:25:49 19 1005 112 0 O 0 61.5 687
21:28:48 19 1006 103 0 O 0 61.6 694
21:31:47 19 1006 95 0 O 0 61.9 703
21:34:51 19 1006 86 0 O 0 62.5 702
21:37:49 19 1006 76 0 O 0 62.8 700
21:40:48 19 1006 67 0 O 0 63.4 703
21:43:47 18 1006 58 0 O 0 64.1 703
21:46:47 18 1006 49 0 O 0 65.7 712
21:49:46 18 1006 41 0 O 0 66.1 724
21:52:47 18 1005 33 0 O 0 66.1 732
21:55:49 18 1006 27 0 O 0 67.1 724
21:58:47 18 1006 21 0 O 0 68 725
22:01:48 18 1005 16 0 O 0 69.6 727
22:04:47 18 1006 13 0 O 0 70.5 733
22:07:48 18 1006 10 0 O 0 70.4 743
22:10:48 18 1006 7 0 O 0 69.9 746
22:13:47 17 1005 6 0 O 0 70.3 748
22:16:47 17 1006 5 0 O 0 70.8 746
22:19:45 17 1006 4 0 O 0 72.6 741
22:22:49 17 1006 3 0 NO 0 73.5 749
22:25:46 17 1006 3 0 N 0 73.8 753
22:28:47 17 1006 3 0 N 0 74.6 747
22:31:46 17 1006 3 0 N 0 74.5 744
22:34:45 17 1006 0 0 N 0 74.4 747
22:37:46 17 1005 0 0 N 0 75.3 755
22:40:47 16 1006 0 0 N 0 75.5 762
22:43:47 16 1006 0 0 N 0 75.5 764
22:46:46 16 1006 0 0 N 0 75.1 757
22:49:49 16 1006 0 0 N 0 75.3 759
22:52:47 16 1005 0 0 N 0 75.7 754
22:55:45 16 1006 0 0 N 0 76.1 753
22:58:49 16 1006 0 0 SO 0 75.9 744
23:01:49 16 1006 0 0 SO 0 77 741
23:04:46 16 1005 0 0 NO 0 78.9 731
23:07:49 16 1006 0 0 NO 0 80.8 735
23:10:48 16 1006 0 0 NO 0 81.2 741
23:13:50 16 1006 0 0 NO 0 80.9 738
23:16:48 16 1005 0 0 NO 0 80.8 739
23:19:48 16 1006 0 0 NO 0 80.2 744
23:22:47 16 1005 0 0 NO 0 80.7 743
23:25:49 16 1006 0 0 NO 0 80.8 735
23:28:49 16 1006 0 0 NO 0 80.8 726
23:31:47 16 1005 0 0 NO 0 81.3 733
23:34:48 15 1005 0 0 NO 0 81.9 735
23:37:48 15 1006 0 0 NO 0 82.5 738
23:40:47 15 1005 0 0 NO 0 82.7 741
23:43:48 15 1006 0 0 NO 0 82.6 743
23:46:47 15 1006 0 0 NO 0 82.5 746
23:49:48 16 1006 0 0 NO 0 82.3 749
23:52:47 16 1006 0 0 NO 0 82.1 754
23:55:47 16 1006 0 0 NO 0 82 756
23:58:46 16 1006 0 0 NO 0 82.4 758

Letzte Änderung : 04-Jan-2022
Copyright Jens Köhler, Wolfsburg, Obere Dorfstraße 10d